This is the latest recevied weather packets stored in our database for station/object K3BAK-13. If no packets are shown the sender has not sent any weather packets the latest 10 day(s).
| Time | Temp. | Humidity | Pressure | Rain* | Wind** | Luminosity | Snow |
|---|---|---|---|---|---|---|---|
| 1777462261 | 12.78° C | 95% | 1011.9 hPa | 0 mm | - | - | - |
| 1777461960 | 12.78° C | 96% | 1012 hPa | 0 mm | - | - | - |
| 1777459859 | 12.78° C | 95% | 1011.7 hPa | 0 mm | - | - | - |
| 1777458360 | 12.22° C | 95% | 1011.7 hPa | 0 mm | - | - | - |
| 1777457761 | 12.22° C | 94% | 1011.6 hPa | 0 mm | - | - | - |
| 1777457160 | 12.22° C | 94% | 1011.8 hPa | 0 mm | - | - | - |
| 1777455361 | 12.78° C | 94% | 1011.8 hPa | 0 mm | - | - | - |
| 1777452659 | 13.33° C | 94% | 1012.4 hPa | 0 mm | - | - | - |
| 1777452060 | 13.33° C | 94% | 1012.2 hPa | 0 mm | - | - | - |
| 1777449959 | 13.33° C | 93% | 1012.3 hPa | 0 mm | - | - | - |
| 1777449059 | 13.33° C | 93% | 1012.5 hPa | 0 mm | - | - | - |
| 1777448764 | 13.33° C | 93% | 1012.3 hPa | 0 mm | - | - | - |
| 1777448459 | 13.33° C | 93% | 1012.2 hPa | 0 mm | - | - | - |
| 1777446660 | 13.89° C | 93% | 1012.7 hPa | 0 mm | - | - | - |
| 1777446068 | 13.89° C | 93% | 1012.8 hPa | 0 mm | - | - | - |
| 1777443659 | 13.89° C | 92% | 1013.1 hPa | 0 mm | - | - | - |
| 1777438262 | 14.44° C | 90% | 1014 hPa | 0 mm | - | - | - |
| 1777437058 | 15° C | 89% | 1014 hPa | 0 mm | - | - | - |
| 1777436164 | 15° C | 89% | 1014.2 hPa | 0 mm | - | - | - |
| 1777435558 | 15.56° C | 88% | 1014.2 hPa | 0 mm | - | - | - |
| 1777434958 | 15.56° C | 88% | 1014.4 hPa | 0 mm | - | - | - |
| 1777433160 | 15.56° C | 86% | 1014.4 hPa | 0 mm | - | - | - |
| 1777431058 | 16.67° C | 84% | 1014.1 hPa | 0 mm | - | - | - |
| 1777428659 | 17.22° C | 81% | 1014.6 hPa | 0 mm | - | - | - |
| 1777428359 | 17.78° C | 80% | 1014.6 hPa | 0 mm | - | - | - |
* Rain latest hour (hover to see other rain measurements)
** Current wind speed in m/s (hover to see current wind gust speed)